This is the latest recevied weather packets stored in our database for station/object K0NV. If no packets are shown the sender has not sent any weather packets the latest 10 day(s).
| Time | Temp. | Humidity | Pressure | Rain* | Wind** | Luminosity | Snow |
|---|---|---|---|---|---|---|---|
| 1778119627 | 11.67° C | 61% | 1018.4 hPa | 0 mm | - | 0 W/m² | - |
| 1778119323 | 11.67° C | 61% | 1018.4 hPa | 0 mm | - | 0 W/m² | - |
| 1778119021 | 11.67° C | 61% | 1018.4 hPa | 0 mm | - | 0 W/m² | - |
| 1778118718 | 11.67° C | 61% | 1018.3 hPa | 0 mm | - | 0 W/m² | - |
| 1778118414 | 11.67° C | 61% | 1018.3 hPa | 0 mm | - | 0 W/m² | - |
| 1778118110 | 12.22° C | 59% | 1018.4 hPa | 0 mm | - | 0 W/m² | - |
| 1778117808 | 12.22° C | 59% | 1018.3 hPa | 0 mm | - | 0 W/m² | - |
| 1778117505 | 12.22° C | 59% | 1018.4 hPa | 0 mm | - | 0 W/m² | - |
| 1778117203 | 12.78° C | 58% | 1018 hPa | 0 mm | - | 0 W/m² | - |
| 1778116897 | 12.78° C | 57% | 1018 hPa | 0 mm | - | 0 W/m² | - |
| 1778116596 | 12.78° C | 57% | 1018.3 hPa | 0 mm | - | 0 W/m² | - |
| 1778116292 | 12.78° C | 56% | 1018.3 hPa | 0 mm | - | 0 W/m² | - |
| 1778115987 | 12.78° C | 55% | 1017.9 hPa | 0 mm | - | 1 W/m² | - |
| 1778115683 | 12.78° C | 56% | 1018 hPa | 0 mm | - | 3 W/m² | - |
| 1778115380 | 13.33° C | 55% | 1018.2 hPa | 0 mm | - | 6 W/m² | - |
| 1778115076 | 13.33° C | 54% | 1018 hPa | 0 mm | - | 8 W/m² | - |
| 1778114773 | 13.33° C | 55% | 1018 hPa | 0 mm | - | 12 W/m² | - |
| 1778114471 | 13.89° C | 54% | 1018.1 hPa | 0 mm | - | 15 W/m² | - |
| 1778114167 | 13.89° C | 53% | 1017.6 hPa | 0 mm | - | 18 W/m² | - |
| 1778113862 | 13.89° C | 52% | 1017.7 hPa | 0 mm | - | 23 W/m² | - |
| 1778113559 | 13.89° C | 52% | 1017.6 hPa | 0 mm | - | 29 W/m² | - |
| 1778113254 | 14.44° C | 52% | 1017.8 hPa | 0 mm | - | 30 W/m² | - |
| 1778112951 | 14.44° C | 51% | 1017.4 hPa | 0 mm | - | 30 W/m² | - |
| 1778112649 | 14.44° C | 51% | 1017.7 hPa | 0 mm | - | 41 W/m² | - |
| 1778112344 | 15° C | 51% | 1017.5 hPa | 0 mm | - | 56 W/m² | - |
* Rain latest hour (hover to see other rain measurements)
** Current wind speed in m/s (hover to see current wind gust speed)